User: anonymous   Login
Location: Unspecified
(0.0000°N, 0.0000°E)
Time: 16:57:22
(UTC+00:00)
Language:

Gonets-D1 - Orbit

View from above orbital plane
View from above orbital plane
View from above satellite
View from above satellite

Ground track
Ground track

The orbit data is extracted from the following two-line orbital elements,

1 23787U 96009A   19017.09723783  .00000013  00000-0  14941-4 0  9995
2 23787  82.5747 232.8449 0011580  76.6535 283.5852 12.64035887 57156
Epoch (UTC): 17 January 2019 02:20:01
Eccentricity: 0.0011580
inclination: 82.5747°
perigee height: 1397 km
apogee height: 1415 km
right ascension of ascending node: 232.8449°
argument of perigee: 76.6535°
revolutions per day: 12.64035887
mean anomaly at epoch: 283.5852°
orbit number at epoch: 5715

The dashed part of the orbit path shows where the satellite is in the earth's shadow,  

DLR